INTELSAT 902 (IS-902)

Last updated on Tue Apr 15 2025 00:02:39 GMT+0000 (Coordinated Universal Time)

1 26900U 01039A 25103.10644801 -.00000274 00000+0 00000+0 0 9997 2 26900 5.0285 77.0169 0004504 302.7671 169.9948 1.00271701 86388
UTC large
Height (km)
Speed (km/s)
/
Latitude / Longitude
Inclination (degrees)
Orbital Period (minutes)
Azimuth
Elevation
Range (km)
Doppler Factor

Next 0 passes for location: London (51.5072 / 0.1276)

Sorry there are no passes over London.